When you browse on this site, cookies collect data to enhance your experience and personalize the content and advertising you see.
Visit our Privacy Policy to learn more. By continuing to use the site, you agree to this use of cookies and data.
  • In Belgium
  • List of Countries
  • For 7 days
  • Water Temperature
  • Satellite Maps
  • Weather Map
  • Weather Widgets
  • user-avatar
    Login

    Hourly Weather Kozhina Gora

    Today, 24 June, Monday

    Time Temperature Precipitation Wind Pressure Humidity
    00:00 +13°C° 0 mm 1 mps 750 mmHg 73%
    01:00 +12°C° 0 mm 1 mps 751 mmHg 70%
    02:00 +11°C° 0 mm 1 mps 751 mmHg 72%
    03:00 +12°C° 0 mm 1 mps 751 mmHg 70%
    04:00 +13°C° 0 mm 1 mps 751 mmHg 67%
    05:00 +13°C° 0 mm 1 mps 751 mmHg 65%
    06:00 +15°C° 0 mm 1 mps 751 mmHg 59%
    07:00 +18°C° 0 mm 1 mps 751 mmHg 52%
    08:00 +20°C° 0 mm 1 mps 752 mmHg 45%
    09:00 +19°C° 0 mm 2 mps 751 mmHg 44%
    10:00 +20°C° 0 mm 3 mps 751 mmHg 44%
    11:00 +20°C° 0 mm 4 mps 751 mmHg 44%
    12:00 +20°C° 0.1 mm 4 mps 751 mmHg 46%
    13:00 +20°C° 0.1 mm 4 mps 751 mmHg 49%
    14:00 +19°C° 0.1 mm 4 mps 752 mmHg 51%
    15:00 +20°C° 0 mm 3 mps 752 mmHg 50%
    16:00 +20°C° 0 mm 3 mps 751 mmHg 49%
    17:00 +20°C° 0 mm 3 mps 751 mmHg 48%
    18:00 +18°C° 0.1 mm 3 mps 752 mmHg 58%
    19:00 +17°C° 0.1 mm 2 mps 752 mmHg 67%
    20:00 +15°C° 0.1 mm 2 mps 752 mmHg 77%
    21:00 +14°C° 0 mm 2 mps 752 mmHg 76%
    22:00 +13°C° 0 mm 2 mps 753 mmHg 76%
    23:00 +12°C° 0 mm 2 mps 753 mmHg 75%

    Tomorrow, 25 June, Tuesday

    Time Temperature Precipitation Wind Pressure Humidity
    00:00 +10°C° 0 mm 2 mps 753 mmHg 76%
    01:00 +10°C° 0 mm 2 mps 754 mmHg 77%
    02:00 +9°C° 0 mm 2 mps 754 mmHg 77%
    03:00 +10°C° 0 mm 2 mps 754 mmHg 75%
    04:00 +10°C° 0 mm 2 mps 754 mmHg 73%
    05:00 +12°C° 0 mm 2 mps 754 mmHg 71%
    06:00 +14°C° 0 mm 2 mps 754 mmHg 65%
    07:00 +15°C° 0 mm 2 mps 755 mmHg 60%
    08:00 +17°C° 0 mm 2 mps 755 mmHg 54%
    09:00 +18°C° 0 mm 2 mps 755 mmHg 50%
    10:00 +19°C° 0 mm 3 mps 755 mmHg 45%
    11:00 +20°C° 0 mm 3 mps 755 mmHg 41%
    12:00 +20°C° 0 mm 3 mps 755 mmHg 42%
    13:00 +20°C° 0 mm 3 mps 754 mmHg 43%
    14:00 +20°C° 0 mm 2 mps 754 mmHg 44%
    15:00 +20°C° 0 mm 2 mps 754 mmHg 47%
    16:00 +20°C° 0 mm 2 mps 754 mmHg 50%
    17:00 +21°C° 0 mm 1 mps 754 mmHg 52%
    18:00 +19°C° 0 mm 1 mps 754 mmHg 59%
    19:00 +18°C° 0 mm 1 mps 753 mmHg 66%
    20:00 +15°C° 0 mm 1 mps 753 mmHg 73%
    21:00 +14°C° 0 mm 1 mps 753 mmHg 75%
    22:00 +14°C° 0 mm 1 mps 753 mmHg 76%
    23:00 +13°C° 0 mm 1 mps 753 mmHg 77%

    Day after tomorrow, 26 June, Wednesday

    Time Temperature Precipitation Wind Pressure Humidity
    00:00 +13°C° 0 mm 1 mps 753 mmHg 76%
    01:00 +13°C° 0 mm 1 mps 753 mmHg 75%
    02:00 +13°C° 0 mm 1 mps 752 mmHg 73%
    03:00 +14°C° 0 mm 2 mps 752 mmHg 73%
    04:00 +14°C° 0 mm 2 mps 752 mmHg 72%
    05:00 +14°C° 0 mm 2 mps 751 mmHg 72%
    06:00 +15°C° 0 mm 2 mps 751 mmHg 66%
    07:00 +16°C° 0 mm 3 mps 751 mmHg 61%
    08:00 +18°C° 0 mm 3 mps 751 mmHg 55%
    09:00 +19°C° 0 mm 3 mps 751 mmHg 51%
    10:00 +19°C° 0 mm 3 mps 750 mmHg 47%
    11:00 +20°C° 0 mm 3 mps 750 mmHg 43%
    12:00 +20°C° 0.2 mm 3 mps 749 mmHg 52%
    13:00 +19°C° 0.2 mm 3 mps 749 mmHg 60%
    14:00 +18°C° 0.2 mm 3 mps 749 mmHg 69%
    15:00 +18°C° 0.2 mm 3 mps 748 mmHg 67%
    16:00 +19°C° 0.2 mm 2 mps 748 mmHg 64%
    17:00 +19°C° 0.2 mm 2 mps 747 mmHg 61%
    18:00 +17°C° 0.1 mm 2 mps 747 mmHg 69%
    19:00 +16°C° 0.1 mm 1 mps 747 mmHg 76%
    20:00 +13°C° 0.1 mm 0 mps 746 mmHg 84%
    21:00 +12°C° 0 mm 0 mps 746 mmHg 86%
    22:00 +11°C° 0 mm 0 mps 746 mmHg 88%
    23:00 +11°C° 0 mm 1 mps 745 mmHg 91%

    27 June, Thursday

    Time Temperature Precipitation Wind Pressure Humidity
    00:00 +11°C° 0 mm 1 mps 745 mmHg 91%
    01:00 +11°C° 0 mm 1 mps 745 mmHg 92%
    02:00 +10°C° 0 mm 1 mps 744 mmHg 93%
    03:00 +10°C° 0 mm 2 mps 744 mmHg 91%
    04:00 +12°C° 0 mm 2 mps 743 mmHg 88%
    05:00 +13°C° 0 mm 2 mps 742 mmHg 85%
    06:00 +13°C° 0 mm 3 mps 742 mmHg 78%
    07:00 +16°C° 0 mm 3 mps 741 mmHg 72%
    08:00 +17°C° 0 mm 4 mps 741 mmHg 66%
    09:00 +18°C° 0 mm 4 mps 740 mmHg 64%
    10:00 +18°C° 0 mm 3 mps 739 mmHg 63%
    11:00 +18°C° 0 mm 3 mps 739 mmHg 62%
    12:00 +18°C° 0 mm 3 mps 738 mmHg 65%
    13:00 +18°C° 0 mm 3 mps 737 mmHg 68%
    14:00 +17°C° 0 mm 3 mps 737 mmHg 71%
    15:00 +17°C° 0 mm 3 mps 736 mmHg 72%
    16:00 +16°C° 0 mm 3 mps 736 mmHg 72%
    17:00 +16°C° 0 mm 3 mps 735 mmHg 73%
    18:00 +15°C° 0 mm 2 mps 735 mmHg 77%
    19:00 +15°C° 0 mm 2 mps 734 mmHg 80%
    20:00 +14°C° 0 mm 2 mps 734 mmHg 83%
    21:00 +14°C° 0.1 mm 2 mps 734 mmHg 87%
    22:00 +13°C° 0.1 mm 2 mps 733 mmHg 90%
    23:00 +13°C° 0.1 mm 2 mps 733 mmHg 94%

    28 June, Friday

    Time Temperature Precipitation Wind Pressure Humidity
    00:00 +13°C° 0.1 mm 2 mps 733 mmHg 93%
    01:00 +12°C° 0.1 mm 3 mps 732 mmHg 93%
    02:00 +11°C° 0.1 mm 3 mps 732 mmHg 92%
    03:00 +11°C° 0.2 mm 3 mps 732 mmHg 92%
    04:00 +11°C° 0.2 mm 4 mps 731 mmHg 92%
    05:00 +11°C° 0.2 mm 4 mps 731 mmHg 92%
    06:00 +12°C° 0.2 mm 4 mps 731 mmHg 89%
    07:00 +12°C° 0.2 mm 4 mps 731 mmHg 86%
    08:00 +12°C° 0.2 mm 5 mps 730 mmHg 82%
    09:00 +12°C° 0.7 mm 5 mps 730 mmHg 85%
    10:00 +12°C° 0.7 mm 5 mps 730 mmHg 89%
    11:00 +12°C° 0.7 mm 5 mps 730 mmHg 92%
    12:00 +12°C° 1.5 mm 5 mps 730 mmHg 93%
    13:00 +10°C° 1.5 mm 5 mps 730 mmHg 95%
    14:00 +10°C° 1.5 mm 5 mps 730 mmHg 96%
    15:00 +10°C° 0.5 mm 5 mps 730 mmHg 96%
    16:00 +11°C° 0.5 mm 4 mps 730 mmHg 96%
    17:00 +11°C° 0.5 mm 4 mps 730 mmHg 97%
    18:00 +10°C° 0.5 mm 4 mps 729 mmHg 97%
    19:00 +10°C° 0.5 mm 4 mps 729 mmHg 97%
    20:00 +10°C° 0.5 mm 4 mps 729 mmHg 97%
    21:00 +10°C° 0.5 mm 4 mps 729 mmHg 97%
    22:00 +10°C° 0.5 mm 4 mps 728 mmHg 98%
    23:00 +10°C° 0.5 mm 4 mps 728 mmHg 98%

    29 June, Saturday

    Time Temperature Precipitation Wind Pressure Humidity
    00:00 +10°C° 2.8 mm 4 mps 728 mmHg 98%
    01:00 +10°C° 2.8 mm 4 mps 727 mmHg 98%
    02:00 +10°C° 2.8 mm 4 mps 727 mmHg 98%
    03:00 +10°C° 1.6 mm 4 mps 727 mmHg 98%
    04:00 +11°C° 1.6 mm 4 mps 726 mmHg 98%
    05:00 +11°C° 1.6 mm 4 mps 726 mmHg 98%
    06:00 +11°C° 0.3 mm 3 mps 726 mmHg 98%
    07:00 +12°C° 0.3 mm 3 mps 727 mmHg 98%
    08:00 +12°C° 0.3 mm 3 mps 727 mmHg 97%
    09:00 +13°C° 0.6 mm 3 mps 727 mmHg 97%
    10:00 +13°C° 0.6 mm 4 mps 727 mmHg 97%
    11:00 +14°C° 0.6 mm 4 mps 728 mmHg 96%
    12:00 +14°C° 1 mm 4 mps 728 mmHg 95%
    13:00 +15°C° 1 mm 4 mps 728 mmHg 94%
    14:00 +15°C° 1 mm 5 mps 728 mmHg 93%
    15:00 +15°C° 0.8 mm 5 mps 729 mmHg 93%
    16:00 +15°C° 0.8 mm 5 mps 729 mmHg 93%
    17:00 +15°C° 0.8 mm 5 mps 729 mmHg 94%
    18:00 +14°C° 0.2 mm 5 mps 730 mmHg 94%
    19:00 +14°C° 0.2 mm 5 mps 730 mmHg 95%
    20:00 +13°C° 0.2 mm 5 mps 731 mmHg 96%
    21:00 +13°C° 0.1 mm 5 mps 731 mmHg 97%
    22:00 +13°C° 0.1 mm 4 mps 731 mmHg 97%
    23:00 +13°C° 0.1 mm 4 mps 732 mmHg 97%
    Show more